Regional Weather Roundup
Issued by NWS Green Bay, WI

Home | Current Version | Previous Version | Graphics & Text | Print | Product List | Glossary Off
Versions: 1 2 3 4 5 6 7 8 9 10 11 12 13 14 15 16 17 18 19 20 21 22 23 24 25 26 27 28 29 30 31 32 33 34 35 36 37 38 39 40 41 42 43 44 45 46 47 48 49 50

000
ASUS43 KGRB 231100
RWRGRB

NORTH-CENTRAL AND NORTHEAST WISCONSIN REGIONAL WEATHER ROUNDUP
NATIONAL WEATHER SERVICE GREEN BAY WI
600 AM CDT WED AUG 23 2017

WIZ005-009-010>012-018-019-231200-
NORTH CENTRAL WISCONSIN

CITY           SKY/WX    TMP DP  RH WIND       PRES   REMARKS
IRONWOOD       CLOUDY    55  53  93 W5        30.01R
MANITOWISH WTR NOT AVBL
ARBOR VITAE    NOT AVBL
EAGLE RIVER    NOT AVBL
LAND O LAKES   NOT AVBL
RHINELANDER    MOCLDY    52  52 100 W8        30.01R
PHILLIPS       CLEAR     48  48 100 CALM      30.02S
ANTIGO         NOT AVBL
TOMAHAWK       NOT AVBL
MERRILL        NOT AVBL
$$

WIZ013-073-231200-
NORTHEAST WISCONSIN

CITY           SKY/WX    TMP DP  RH WIND       PRES   REMARKS
IRON MOUNTAIN  CLEAR     52  49  89 NW7       29.95R
MARINETTE      CLEAR     54  52  93 VRB3      29.96R
$$

WIZ017-030-035>037-045-231200-
CENTRAL WISCONSIN

CITY           SKY/WX    TMP DP  RH WIND       PRES   REMARKS
MEDFORD        NOT AVBL
WAUSAU         PTCLDY    53  50  89 NW7       30.01R
MOSINEE        PTCLDY    50  48  93 W5        30.02S
MARSHFIELD     CLEAR     50  47  89 NW7       30.02S
WISC RAPIDS    CLEAR     51  48  89 NW5       30.04R
STEVENS POINT  NOT AVBL
WAUPACA        NOT AVBL
SHAWANO        NOT AVBL
CLINTONVILLE   NOT AVBL
WAUTOMA        CLEAR     52  49  89 W6        30.03R
$$

WIZ038-039-048-051-231200-
FOX VALLEY

CITY           SKY/WX    TMP DP  RH WIND       PRES   REMARKS
NWS GREEN BAY  PTCLDY    52  52 100 W8        29.98R
APPLETON       PTCLDY    52  48  87 W9        29.97S
OSHKOSH        CLEAR     54  49  83 W7        29.99R
FOND DU LAC    CLEAR     56  48  74 W6        30.01R
$$

WIZ022-050-052-231200-
EAST CENTRAL WISCONSIN

CITY           SKY/WX    TMP DP  RH WIND       PRES   REMARKS
EPHRAIM        NOT AVBL
WASHINGTON ISL NOT AVBL
STURGEON BAY   CLEAR     58  54  86 NW9       29.97R
MANITOWOC      NOT AVBL
SHEBOYGAN      CLEAR     56  53  90 W6        29.98R
$$

LMZ563-521-522-541>543-231200-
LAKESHORE

STATION/POSITION TIME  TEMP    WIND        PRES    VSBY  WAVE
                       AIR SEA DIR/SP/G                  HT/PER
                 (UTC) (F)     (DEG/KT/KT) (MB)    (MI)  (FT/S)
SHEBOYGAN LKSHOR 1000   60     290/  9/ 11 1014.3S
KEWAUNEE LKSHORE 1030   56     310/  4/  6 1013.4R
NORTHPORT PIER   1040   61     320/ 19/ 24 1013.2R
N MID LAKE BUOY  0950   61 66  310/ 16/ 19 1012.5R         3/ 4
S GREEN BAY BUOY 1030   61 70  280/ 16/ 19 1014.2R
SISTER BAY LKSHO 1018   60     320/ 18/ 21   N/A
MENOMINEE LKSHOR 1030   56     270/  6/ 12 1013.7R
$$




USA.gov is the U.S. government's official web portal to all federal, state and local government web resources and services.